Location: Newark
(25.0000°N, 73.5000°E)
Time: 19:08:53
(UTC+00:00)

Altair - Pass Details

Date: 08 March 2021
Orbit: 1501 x 1683 km, 47.2° (Epoch: 10 April)

Event Time Altitude Azimuth Distance (km) Brightness Sun altitude
Rises 17:04:39 0° 316° (NW) 4,684 10.6 -52.3°
Reaches altitude 10° 17:08:24 10° 329° (NNW) 3,725 9.9 -53.1°
Enters shadow 17:11:22 19° 344° (NNW) 3,112 9.3 -53.7°
Maximum altitude 17:16:03 27° 24° (NNE) 2,692 - -54.6°
Drops below altitude 10° 17:23:55 10° 78° (ENE) 3,840 - -56.1°
Sets 17:27:49 0° 90° (E) 4,854 - -56.9°
